EN

Hourly Weather Dziedzice

Today, 9 March, Tuesday

Time Temperature Precipitation Wind Pressure Humidity
00:00 -5°C° 0 mm 2 mps 755 mmHg 85%
01:00 -3°C° 0 mm 1 mps 755 mmHg 86%
02:00 -3°C° 0 mm 1 mps 755 mmHg 85%
03:00 -3°C° 0 mm 1 mps 755 mmHg 85%
04:00 -3°C° 0 mm 1 mps 755 mmHg 84%
05:00 -2°C° 0 mm 1 mps 755 mmHg 82%
06:00 -2°C° 0 mm 1 mps 755 mmHg 80%
07:00 -2°C° 0 mm 1 mps 755 mmHg 77%
08:00 -1°C° 0 mm 1 mps 755 mmHg 71%
09:00 -1°C° 0 mm 1 mps 755 mmHg 65%
10:00 0°C° 0 mm 1 mps 756 mmHg 59%
11:00 0°C° 0 mm 1 mps 755 mmHg 56%
12:00 +1°C° 0 mm 1 mps 755 mmHg 53%
13:00 +1°C° 0 mm 1 mps 755 mmHg 50%
14:00 +1°C° 0 mm 1 mps 755 mmHg 51%
15:00 +1°C° 0 mm 1 mps 755 mmHg 51%
16:00 +1°C° 0 mm 1 mps 754 mmHg 52%
17:00 0°C° 0 mm 1 mps 754 mmHg 56%
18:00 -3°C° 0 mm 2 mps 754 mmHg 60%
19:00 -4°C° 0 mm 2 mps 754 mmHg 64%
20:00 -4°C° 0 mm 2 mps 754 mmHg 64%
21:00 -4°C° 0 mm 2 mps 755 mmHg 64%
22:00 -4°C° 0 mm 2 mps 755 mmHg 64%
23:00 -4°C° 0 mm 2 mps 755 mmHg 65%

Tomorrow, 10 March, Wednesday

Time Temperature Precipitation Wind Pressure Humidity
00:00 -4°C° 0 mm 2 mps 755 mmHg 66%
01:00 -4°C° 0 mm 2 mps 754 mmHg 67%
02:00 -2°C° 0 mm 1 mps 754 mmHg 67%
03:00 -2°C° 0 mm 1 mps 754 mmHg 67%
04:00 -2°C° 0 mm 1 mps 754 mmHg 68%
05:00 -2°C° 0 mm 1 mps 754 mmHg 68%
06:00 -2°C° 0 mm 1 mps 754 mmHg 68%
07:00 -2°C° 0 mm 1 mps 755 mmHg 67%
08:00 -1°C° 0 mm 1 mps 755 mmHg 62%
09:00 0°C° 0 mm 1 mps 755 mmHg 57%
10:00 +1°C° 0 mm 2 mps 755 mmHg 52%
11:00 +2°C° 0 mm 1 mps 755 mmHg 50%
12:00 +3°C° 0 mm 1 mps 755 mmHg 48%
13:00 +3°C° 0 mm 1 mps 755 mmHg 47%
14:00 +3°C° 0 mm 1 mps 755 mmHg 48%
15:00 +3°C° 0 mm 1 mps 755 mmHg 49%
16:00 +2°C° 0 mm 0 mps 754 mmHg 50%
17:00 +2°C° 0 mm 1 mps 755 mmHg 56%
18:00 -1°C° 0 mm 2 mps 755 mmHg 61%
19:00 -3°C° 0 mm 2 mps 755 mmHg 67%
20:00 -3°C° 0 mm 2 mps 755 mmHg 67%
21:00 -3°C° 0 mm 2 mps 755 mmHg 68%
22:00 -3°C° 0 mm 2 mps 755 mmHg 69%
23:00 -3°C° 0 mm 2 mps 755 mmHg 69%

Day after tomorrow, 11 March, Thursday

Time Temperature Precipitation Wind Pressure Humidity
00:00 -4°C° 0 mm 3 mps 755 mmHg 68%
01:00 -5°C° 0 mm 3 mps 755 mmHg 68%
02:00 -5°C° 0 mm 3 mps 754 mmHg 68%
03:00 -5°C° 0 mm 3 mps 754 mmHg 67%
04:00 -5°C° 0 mm 3 mps 754 mmHg 67%
05:00 -4°C° 0 mm 3 mps 753 mmHg 65%
06:00 -4°C° 0 mm 4 mps 753 mmHg 63%
07:00 -4°C° 0 mm 4 mps 753 mmHg 60%
08:00 -4°C° 0 mm 5 mps 753 mmHg 55%
09:00 -2°C° 0 mm 6 mps 752 mmHg 50%
10:00 -1°C° 0 mm 7 mps 752 mmHg 44%
11:00 -1°C° 0 mm 7 mps 751 mmHg 43%
12:00 0°C° 0 mm 7 mps 750 mmHg 43%
13:00 +2°C° 0 mm 7 mps 750 mmHg 42%
14:00 0°C° 0 mm 7 mps 749 mmHg 45%
15:00 0°C° 0 mm 7 mps 748 mmHg 48%
16:00 0°C° 0 mm 7 mps 747 mmHg 51%
17:00 -1°C° 0.3 mm 7 mps 746 mmHg 63%
18:00 -1°C° 0.3 mm 7 mps 746 mmHg 76%
19:00 -2°C° 0.3 mm 8 mps 745 mmHg 88%
20:00 -2°C° 0.5 mm 8 mps 744 mmHg 90%
21:00 -2°C° 0.5 mm 7 mps 744 mmHg 93%
22:00 -1°C° 0.5 mm 7 mps 743 mmHg 95%
23:00 -1°C° 1.1 mm 7 mps 743 mmHg 95%

12 March, Friday

Time Temperature Precipitation Wind Pressure Humidity
00:00 +1°C° 1.1 mm 6 mps 742 mmHg 95%
01:00 +1°C° 1.1 mm 6 mps 741 mmHg 96%
02:00 +1°C° 1 mm 5 mps 741 mmHg 96%
03:00 +2°C° 1 mm 5 mps 741 mmHg 96%
04:00 +3°C° 1 mm 4 mps 741 mmHg 96%
05:00 +2°C° 0 mm 5 mps 741 mmHg 94%
06:00 +2°C° 0 mm 5 mps 742 mmHg 93%
07:00 +2°C° 0 mm 5 mps 742 mmHg 92%
08:00 +2°C° 0 mm 6 mps 743 mmHg 88%
09:00 +2°C° 0 mm 7 mps 743 mmHg 85%
10:00 +3°C° 0 mm 7 mps 744 mmHg 82%
11:00 +3°C° 0.1 mm 7 mps 744 mmHg 77%
12:00 +4°C° 0.1 mm 7 mps 745 mmHg 72%
13:00 +5°C° 0.1 mm 7 mps 746 mmHg 68%
14:00 +5°C° 0.1 mm 6 mps 746 mmHg 68%
15:00 +5°C° 0.1 mm 6 mps 746 mmHg 68%
16:00 +6°C° 0.1 mm 5 mps 746 mmHg 68%
17:00 +4°C° 0 mm 4 mps 746 mmHg 72%
18:00 +3°C° 0 mm 4 mps 746 mmHg 76%
19:00 +1°C° 0 mm 4 mps 746 mmHg 80%
20:00 +1°C° 0 mm 4 mps 746 mmHg 80%
21:00 +1°C° 0 mm 4 mps 746 mmHg 80%
22:00 +1°C° 0 mm 4 mps 746 mmHg 80%
23:00 0°C° 0 mm 4 mps 746 mmHg 81%

13 March, Saturday

Time Temperature Precipitation Wind Pressure Humidity
00:00 0°C° 0 mm 4 mps 746 mmHg 82%
01:00 0°C° 0 mm 4 mps 746 mmHg 83%
02:00 0°C° 0 mm 4 mps 745 mmHg 84%
03:00 -1°C° 0 mm 4 mps 745 mmHg 84%
04:00 -1°C° 0 mm 5 mps 745 mmHg 84%
05:00 0°C° 0 mm 5 mps 745 mmHg 84%
06:00 0°C° 0 mm 5 mps 744 mmHg 85%
07:00 -1°C° 0 mm 6 mps 744 mmHg 85%
08:00 +1°C° 0.3 mm 6 mps 744 mmHg 83%
09:00 +2°C° 0.3 mm 6 mps 744 mmHg 82%
10:00 +3°C° 0.3 mm 6 mps 744 mmHg 80%
11:00 +4°C° 0.2 mm 7 mps 744 mmHg 74%
12:00 +5°C° 0.2 mm 7 mps 744 mmHg 69%
13:00 +6°C° 0.2 mm 7 mps 744 mmHg 63%
14:00 +6°C° 0.1 mm 7 mps 744 mmHg 64%
15:00 +7°C° 0.1 mm 6 mps 744 mmHg 65%
16:00 +7°C° 0.1 mm 5 mps 743 mmHg 66%
17:00 +6°C° 0 mm 5 mps 743 mmHg 70%
18:00 +5°C° 0 mm 5 mps 743 mmHg 74%
19:00 +3°C° 0 mm 5 mps 742 mmHg 78%
20:00 +3°C° 0 mm 5 mps 742 mmHg 80%
21:00 +4°C° 0 mm 6 mps 742 mmHg 82%
22:00 +4°C° 0 mm 6 mps 742 mmHg 83%
23:00 +4°C° 0 mm 6 mps 741 mmHg 82%

14 March, Sunday

Time Temperature Precipitation Wind Pressure Humidity
00:00 +4°C° 0 mm 7 mps 741 mmHg 81%
01:00 +4°C° 0 mm 7 mps 740 mmHg 80%
02:00 +4°C° 0 mm 7 mps 740 mmHg 80%
03:00 +4°C° 0 mm 7 mps 739 mmHg 80%
04:00 +4°C° 0 mm 7 mps 739 mmHg 79%
05:00 +4°C° 0 mm 7 mps 738 mmHg 79%
06:00 +4°C° 0 mm 7 mps 738 mmHg 78%
07:00 +4°C° 0 mm 7 mps 738 mmHg 78%
08:00 +4°C° 0 mm 7 mps 739 mmHg 75%
09:00 +5°C° 0 mm 7 mps 739 mmHg 71%
10:00 +5°C° 0 mm 7 mps 740 mmHg 68%
11:00 +5°C° 0 mm 7 mps 740 mmHg 63%
12:00 +6°C° 0 mm 7 mps 740 mmHg 59%
13:00 +6°C° 0 mm 7 mps 740 mmHg 55%
14:00 +5°C° 0 mm 7 mps 740 mmHg 58%
15:00 +5°C° 0 mm 6 mps 741 mmHg 61%
16:00 +5°C° 0 mm 5 mps 741 mmHg 65%
17:00 +4°C° 0 mm 4 mps 741 mmHg 69%
18:00 +4°C° 0 mm 4 mps 741 mmHg 73%
19:00 +3°C° 0 mm 3 mps 741 mmHg 77%
20:00 +2°C° 0 mm 3 mps 741 mmHg 79%
21:00 +2°C° 0 mm 3 mps 741 mmHg 80%
22:00 +1°C° 0 mm 3 mps 741 mmHg 82%
23:00 0°C° 0 mm 4 mps 741 mmHg 83%
Show more